Lancaster, TX

10:52 PM CDT on August 30, 2016 (GMT -0500)
Lancaster

Weather History for KLNC - May, 2013

Change the Weather History Date:

Tuesday, May 7, 2013

  Actual Average (KRBD) Record (KRBD)
Temperature  
Mean Temperature 67 °F -  
Max Temperature 82 °F 79 °F 93 °F (1998)
Min Temperature 52 °F 60 °F 54 °F (1999)
Cooling Degree Days 2    
Growing Degree Days 17 (Base 50)    
Moisture  
Dew Point 52 °F    
Average Humidity 56    
Maximum Humidity 90    
Minimum Humidity 30    
Precipitation  
Precipitation 0.00 in - - ()
Sea Level Pressure  
Sea Level Pressure 30.02 in    
Wind  
Wind Speed 2 mph (SSE)    
Max Wind Speed 9 mph    
Max Gust Speed -    
Visibility 10 miles    
Events      
Averages and records for this station are not official NWS values.
T = Trace of Precipitation, MM = Missing Value Source: NWS Daily Summary

Daily Weather History Graph

Daily Weather History Graph

Search for Another Location

Airport or City:

Trip Planner

Search our weather history database for the weather conditions in past years. The results will help you decide how hot, cold, wet, or windy it might be!

Date:

Astronomy

May. 07, 2013 Rise Set
Actual Time 6:34 AM CDT 8:12 PM CDT
Civil Twilight 6:07 AM CDT 8:39 PM CDT
Nautical Twilight 5:35 AM CDT 9:11 PM CDT
Astronomical Twilight 5:02 AM CDT 9:45 PM CDT
Moon 5:01 AM CDT (5/7) 6:19 PM CDT (5/7)
Length of Visible Light 14h 31m
Length of Day
13h 38m
Waning Crescent, 5% of the Moon is Illuminated
May 7
Waning Crescent
May 9
New
May 17
First Quarter
May 24
Full
May 31
Last Quarter

Hourly Weather History & Observations

Time (CDT) Temp. Dew Point Humidity Pressure Visibility Wind Dir Wind Speed Gust Speed Precip Events Conditions
12:15 AM 61.5 °F 52.5 °F 72% 30.03 in 10.0 mi Calm Calm - N/A   Clear
12:35 AM 61.3 °F 52.3 °F 72% 30.03 in 10.0 mi Calm Calm - N/A   Clear
12:55 AM 61.7 °F 51.6 °F 69% 30.03 in 10.0 mi Calm Calm - N/A   Clear
1:15 AM 63.7 °F 52.5 °F 67% 30.03 in 10.0 mi Calm Calm - N/A   Clear
1:35 AM 61.3 °F 54.0 °F 77% 30.03 in 10.0 mi Calm Calm - N/A   Clear
1:55 AM 60.6 °F 53.2 °F 77% 30.03 in 10.0 mi WSW 3.5 mph - N/A   Clear
2:15 AM 60.8 °F 53.2 °F 76% 30.03 in 10.0 mi Calm Calm - N/A   Clear
2:35 AM 60.1 °F 53.6 °F 79% 30.04 in 10.0 mi Calm Calm - N/A   Clear
2:55 AM 60.8 °F 53.6 °F 77% 30.04 in 10.0 mi Calm Calm - N/A   Clear
3:15 AM 60.1 °F 53.1 °F 78% 30.04 in 10.0 mi Calm Calm - N/A   Clear
3:35 AM 60.1 °F 53.2 °F 78% 30.04 in 10.0 mi Calm Calm - N/A   Clear
3:55 AM 59.9 °F 53.2 °F 79% 30.04 in 10.0 mi Calm Calm - N/A   Clear
4:15 AM 58.3 °F 52.0 °F 80% 30.04 in 10.0 mi Calm Calm - N/A   Clear
4:35 AM 58.8 °F 52.5 °F 80% 30.04 in 10.0 mi Calm Calm - N/A   Clear
4:55 AM 58.8 °F 53.8 °F 83% 30.05 in 10.0 mi Calm Calm - N/A   Clear
5:15 AM 58.3 °F 53.2 °F 83% 30.05 in 10.0 mi Calm Calm - N/A   Clear
5:35 AM 56.3 °F 52.3 °F 87% 30.05 in 10.0 mi Calm Calm - N/A   Clear
5:55 AM 54.7 °F 50.9 °F 87% 30.05 in 10.0 mi Calm Calm - N/A   Clear
6:15 AM 54.7 °F 51.3 °F 88% 30.05 in 10.0 mi Calm Calm - N/A   Clear
6:35 AM 52.2 °F 48.4 °F 87% 30.06 in 10.0 mi Calm Calm - N/A   Clear
6:55 AM 52.5 °F 49.6 °F 90% 30.06 in 10.0 mi Calm Calm - N/A   Clear
7:15 AM 52.7 °F 49.1 °F 88% 30.06 in 10.0 mi Calm Calm - N/A   Clear
7:35 AM 55.6 °F 51.3 °F 85% 30.06 in 10.0 mi Calm Calm - N/A   Clear
7:55 AM 59.7 °F 53.1 °F 79% 30.07 in 10.0 mi Calm Calm - N/A   Clear
8:15 AM 63.7 °F 53.6 °F 70% 30.08 in 10.0 mi Calm Calm - N/A   Clear
8:35 AM 65.1 °F 53.6 °F 66% 30.08 in 10.0 mi Calm Calm - N/A   Clear
8:55 AM 67.1 °F 53.8 °F 62% 30.09 in 10.0 mi SE 3.5 mph - N/A   Clear
9:15 AM 68.4 °F 54.5 °F 61% 30.09 in 10.0 mi Calm Calm - N/A   Clear
9:35 AM 69.8 °F 54.9 °F 59% 30.09 in 10.0 mi Calm Calm - N/A   Clear
9:55 AM 72.0 °F 53.1 °F 51% 30.08 in 10.0 mi South 3.5 mph - N/A   Clear
10:15 AM 73.0 °F 53.1 °F 49% 30.08 in 10.0 mi SSE 5.8 mph - N/A   Clear
10:35 AM 74.1 °F 52.7 °F 47% 30.08 in 10.0 mi Calm Calm - N/A   Clear
10:55 AM 75.2 °F 51.8 °F 44% 30.08 in 10.0 mi SW 5.8 mph - N/A   Clear
11:15 AM 74.7 °F 52.5 °F 46% 30.08 in 10.0 mi Calm Calm - N/A   Clear
11:35 AM 76.6 °F 52.5 °F 43% 30.08 in 10.0 mi SW 6.9 mph - N/A   Clear
11:55 AM 76.5 °F 52.7 °F 43% 30.08 in 10.0 mi South 4.6 mph - N/A   Clear
12:15 PM 76.6 °F 52.2 °F 42% 30.07 in 10.0 mi Calm Calm - N/A   Clear
12:35 PM 77.5 °F 51.6 °F 40% 30.07 in 10.0 mi Calm Calm - N/A   Clear
12:55 PM 77.9 °F 52.3 °F 41% 30.05 in 10.0 mi Calm Calm - N/A   Clear
1:15 PM 78.8 °F 52.9 °F 40% 30.05 in 10.0 mi South 3.5 mph - N/A   Clear
1:35 PM 80.1 °F 52.3 °F 38% 30.04 in 10.0 mi SSE 5.8 mph - N/A   Clear
1:55 PM 80.6 °F 52.3 °F 37% 30.03 in 10.0 mi SSW 5.8 mph - N/A   Clear
2:15 PM 80.2 °F 50.7 °F 36% 30.03 in 10.0 mi SSW 3.5 mph - N/A   Clear
2:35 PM 81.1 °F 50.9 °F 35% 30.02 in 10.0 mi SE 8.1 mph - N/A   Clear
2:55 PM 81.5 °F 50.5 °F 34% 30.01 in 10.0 mi South 6.9 mph - N/A   Clear
3:15 PM 81.3 °F 50.4 °F 34% 30.01 in 10.0 mi Calm Calm - N/A   Clear
3:35 PM 82.4 °F 50.7 °F 33% 30.00 in 10.0 mi SE 6.9 mph - N/A   Clear
3:55 PM 81.9 °F 50.4 °F 33% 29.99 in 10.0 mi SW 4.6 mph - N/A   Clear
4:15 PM 82.2 °F 49.3 °F 32% 29.98 in 10.0 mi South 5.8 mph - N/A   Clear
4:35 PM 82.4 °F 48.2 °F 30% 29.97 in 10.0 mi Calm Calm - N/A   Clear
4:55 PM 82.0 °F 50.9 °F 34% 29.97 in 10.0 mi SE 5.8 mph - N/A   Clear
5:15 PM 82.6 °F 52.3 °F 35% 29.96 in 10.0 mi South 9.2 mph - N/A   Clear
5:35 PM 82.4 °F 50.5 °F 33% 29.96 in 10.0 mi SSW 3.5 mph - N/A   Clear
5:55 PM 82.0 °F 52.0 °F 35% 29.96 in 10.0 mi ESE 6.9 mph - N/A   Clear
6:15 PM 82.2 °F 51.8 °F 35% 29.96 in 10.0 mi SE 8.1 mph - N/A   Clear
6:35 PM 82.4 °F 51.8 °F 35% 29.95 in 10.0 mi SSE 6.9 mph - N/A   Clear
6:55 PM 81.0 °F 51.8 °F 36% 29.95 in 10.0 mi SE 5.8 mph - N/A   Clear
7:15 PM 80.6 °F 52.0 °F 37% 29.95 in 10.0 mi SE 6.9 mph - N/A   Clear
7:35 PM 79.2 °F 52.7 °F 40% 29.95 in 10.0 mi SE 5.8 mph - N/A   Clear
7:55 PM 77.5 °F 52.7 °F 42% 29.96 in 10.0 mi ESE 4.6 mph - N/A   Clear
8:15 PM 75.4 °F 52.9 °F 45% 29.96 in 10.0 mi ESE 4.6 mph - N/A   Clear
8:35 PM 73.8 °F 52.7 °F 48% 29.96 in 10.0 mi ESE 4.6 mph - N/A   Clear
8:55 PM 72.1 °F 52.7 °F 50% 29.96 in 10.0 mi East 3.5 mph - N/A   Clear
9:15 PM 70.3 °F 52.3 °F 53% 29.96 in 10.0 mi East 3.5 mph - N/A   Clear
9:35 PM 69.8 °F 51.8 °F 53% 29.97 in 10.0 mi ESE 3.5 mph - N/A   Clear
9:55 PM 70.3 °F 51.8 °F 52% 29.97 in 10.0 mi ESE 3.5 mph - N/A   Clear
10:15 PM 70.5 °F 50.5 °F 49% 29.97 in 10.0 mi ESE 4.6 mph - N/A   Clear
10:35 PM 68.0 °F 50.9 °F 54% 29.98 in 10.0 mi ESE 3.5 mph - N/A   Clear
10:55 PM 67.1 °F 50.9 °F 56% 29.98 in 10.0 mi Calm Calm - N/A   Clear
11:15 PM 66.6 °F 50.9 °F 57% 29.98 in 10.0 mi ESE 3.5 mph - N/A   Clear
11:35 PM 65.5 °F 50.9 °F 59% 29.98 in 10.0 mi Calm Calm - N/A   Clear
11:55 PM 64.8 °F 51.3 °F 62% 29.98 in 10.0 mi Calm Calm - N/A   Clear